loading
|

SCOUT X-4 DEB, 724

Orbit data source: Space-Track

SCOUT X-4 DEB, 724 is space debris in LEO originally from a launch on Thu, 19 Dec 1963 UTC launched from the Air Force Western Test Range (AFWTR). Debris objects in space refer to the collection of defunct objects orbiting the Earth. Examples of debris include non-operational satellites, rocket bodies, and fragments generated from explosions, collisions, or faulty payload assembly.

Loading next visibility...
Loading greatness...
SCOUT X-4 DEB details
Identifier
724, 1963-053E
Orbit
LEO
Last TLE update15 hours ago
Origin
Flag of USNASA LaRC (US)
ManufacturerUnknown
Mission statusUnknown
MissionUnknown
Bus & MotorUnknown
MassUnknown
Launch date (UTC)
1963-12-19 (61 years ago)
Launch vehicleUnknown
Launch site
Air Force Western Test Range (AFWTR)
Object type
Payload
Rocket body
Debris
Radar Cross SectionSmall (<0.1 m²)

Expand to show TLE details & history

TLE from 15 hours ago
0 SCOUT X-4 DEB
1 00724U 63053E   24258.70461756  .00120245  00000-0  15860-1 0  9992
2 00724  78.5840 255.2702 0239910  68.0707 294.5796 14.61456630925343
Epoch: 2024-09-14T16:54Z
Definitive object data (Epoch: 2024-09-14T16:54:38.957Z)
Latitude0.00001°
Longitude7.44937°
Altitude624.226 km
Speed7.582 km/s
True Right ascension17h 01m 04s
True Declination0° 00' 00"
Sunlit
Object was in daylight at TLE epoch
Predictive object data (real-time)
Latitude25.53108°
Longitude12.09835°
Altitude560.206 km
Speed7.654 km/s
Apparent Right ascension15h 14m 14s
Apparent Declination-6° 56' 45"
Sunlit
Object is in daylight
Predictive observer data (real-time)
Local Sidereal Time00:27:21
Azimuth300.083° NW
Elevation-40.232°
Doppler factor1
Orbital elements
Apogee855.197 km
Perigee516.258 km
Semi-major axis7,063.864 km
Eccentricity0.023991
Inclination78.584°
RAAN255.2702°
Arg. of periapsis68.0707°
True anomaly292.04881°
Mean anomaly294.5796°
Eccentric anomaly293.31728°
Mean motion3.65578 °/min
BSTAR0.01586
Period98.47 mins
No data available

SCOUT X-4 DEB Visibility forecast

Observer location: 39.9160978°, -105.1181434

SCOUT X-4 DEB is not visible in the next 10 days
Span
Click to sort rows by Start time (UTC) header in descending order
Start Az.
Max El. time (UTC)
Max El. Az.
Max El.
End time (UTC)
End Az.